Today's Forecast

Today

Today: Mostly sunny, with a high near 81. Light southwest wind increasing to 5 to 10 mph in the morning.
Mostly Sunny


High: 81 °F

Tonight

Tonight: Partly cloudy, with a low around 63. South wind 5 to 7 mph.
Partly Cloudy


Low: 63 °F

Weather Almanac

Today In 2020
High: 81.3°F
Low: 63.2°F

Today in 2019
High: 81.1°F
Low: 56.1°F

Columbia Metro Airport

Oct 21st Weather Records
Astronomical Info

Sunrise:
07:34 am

Sunset:
06:42 pm
Civil Twilight    
Dawn:
07:09 am
Dusk:
07:07 pm
Moonset: 07:22 am
Moonrise: 06:30 pm
Full MoonOct 20
Last Qtr.Oct 28
New MoonNov 04
First Qtr.Nov 11
Current PhaseFull Moon 99%

Site menu:

About:

weather.olc.net provides weather information from NOAA, the National Weather Service, Weather Underground, and current weather data collected outside of Orangeburg, SC near Great Branch.

Regional Weather Roundup
Issued by NWS Columbia, SC


000
ASUS42 KCAE 211110
RWRCAE
REGIONAL WEATHER ROUNDUP
NATIONAL WEATHER SERVICE COLUMBIA SC
700 AM EDT THU OCT 21 2021

NOTE: "FAIR" INDICATES FEW OR NO CLOUDS BELOW 12,000 FEET WITH NO
SIGNIFICANT WEATHER AND/OR OBSTRUCTIONS TO VISIBILITY.

NOT ALL STATIONS ARE QUALITY CONTROLLED BY THE NATIONAL
WEATHER SERVICE. USE DATA WITH CAUTION...ESPECIALLY
DEWPOINT OBSERVATIONS.

SCZ001>059-115-116-135>137-GAZ040-063>065-077-211200-
...UPSTATE SOUTH CAROLINA...

CITY           SKY/WX    TMP DP  RH WIND       PRES   REMARKS
ANDERSON       CLEAR     54  52  93 CALM      30.17S
LIBERTY        CLEAR     48  48  97 CALM      30.16S
SPARTANBURG    PTCLDY    52  50  93 CALM      30.16S
CLEMSON        CLEAR     56  53  90 W7        30.17S
GREENVILLE     CLEAR     56  52  86 W5        30.17R
GREENWOOD      CLEAR     54  53  97 S3        30.19S
GREER          CLEAR     53  51  93 CALM      30.17R
ROCK HILL      PTCLDY    50  48  93 SW6       30.17R
CHESTER        PTCLDY    52  52 100 CALM      30.18R
LAURENS        CLEAR     52  52 100 CALM      30.17S


...CENTRAL SOUTH CAROLINA...

CITY           SKY/WX    TMP DP  RH WIND       PRES   REMARKS
COLUMBIA APT   PTCLDY    55  50  83 W3        30.18R
COLUMBIA OWENS PTCLDY    53  50  89 CALM      30.19R
MCENTIRE ANGB  PTCLDY    49  49 100 CALM      30.18R
ORANGEBURG     MOCLDY    55  55 100 CALM      30.20S
SUMTER SHAW    MOCLDY    53  51  92 CALM      30.17S
NEWBERRY       CLEAR     52  52 100 CALM      30.21S
AIKEN          FAIR      53  51  93 CALM      30.20R
BARNWELL       FAIR      55  54  94 CALM      30.20R
MANNING        FAIR      52  50  93 CALM      30.20R
CAMDEN         FAIR      50  46  87 CALM      30.19R
LANCASTER      MOCLDY    52  52 100 CALM      30.17S
WINNSBORO      PTCLDY    55  52  88 CALM      30.18S


...EASTERN AND COASTAL SOUTH CAROLINA...

CITY           SKY/WX    TMP DP  RH WIND       PRES   REMARKS
MYRTLE BEACH   MOCLDY    59  56  89 W5        30.20S
N MYRTLE BCH   MOCLDY    57  55  93 CALM      30.19R
CONWAY         FAIR      48  46  93 CALM      30.20S
MARION         FAIR      50  50 100 CALM      30.19R
HARTSVILLE     MOCLDY    50  46  87 CALM      30.18R
FLORENCE       PTCLDY    52  49  89 CALM      30.19R FOG
DARLINGTON     PTCLDY    49  49 100 SW5       30.18S
CHARLESTON APT MOCLDY    55  54  96 CALM      30.20R
MOUNT PLEASANT FAIR      54  54 100 CALM      30.20R
WALTERBORO     PTCLDY    50  50 100 CALM      30.21S
BEAUFORT       PTCLDY    61  57  87 CALM      30.20R
HILTON HEAD    PTCLDY    61  61 100 CALM      30.21R


...EASTERN GEORGIA...

CITY           SKY/WX    TMP DP  RH WIND       PRES   REMARKS
AUGUSTA BUSH F MOCLDY    54  52  93 CALM      30.19R
AUGUSTA DANIEL PTCLDY    62  56  80 CALM      30.19R
THOMSON        MOCLDY    56  56  98 S3        30.19R
WASHINGTON     FAIR      56  53  91 SW5       30.19R
CLAXTON        FAIR      55  54  95 CALM      30.20R
SYLVANIA       PTCLDY    53  52  96 CALM      30.20F
STATESBORO     PTCLDY    55  53  94 CALM      30.20S
SAVANNAH       PTCLDY    56  56 100 CALM      30.20R


...SOUTHERN NORTH CAROLINA...

CITY           SKY/WX    TMP DP  RH WIND       PRES   REMARKS
CHARLOTTE      PTCLDY    54  51  90 S6        30.16R
MONROE         PTCLDY    51  48  89 SW6       30.16R
WADESBORO      PTCLDY    46  44  93 CALM      30.16S
ROCKINGHAM     PTCLDY    50  47  90 CALM      30.18R
RUTHERFORDTON  CLEAR     43  43 100 CALM      30.17S
ASHEVILLE      CLEAR     42  41  96 W3        30.20S

$$